Skip Page Navigation
NASA JPL Caltech
NASA Logo - Jet Propulsion Laboratory + View the NASA Portal
+ Center for Near-Earth Object Studies
JPL Home Earth Solar System Stars & Galaxies Technology
JPL Solar System Dynamics
BODIES ORBITS EPHEMERIDES TOOLS PHYSICAL DATA DISCOVERY FAQ SITE MAP
JPL Small-Body Database Browser
Search: [ help ]  
523565 (2018 CA6)
Classification: Main-belt Asteroid          SPK-ID: 2523565
Ephemeris | Orbit Diagram | Orbital Elements | Mission Design | Physical Parameters | Discovery Circumstances ]

[ show orbit diagram ]
Orbital Elements at Epoch 2459000.5 (2020-May-31.0) TDB
Reference: JPL 6 (heliocentric ecliptic J2000)
 Element Value Uncertainty (1-sigma)   Units 
e .09768993430460553 7.8619e-08  
a 2.555638692286442 3.2172e-08 au
q 2.305978516330671 2.0419e-07 au
i 10.00636733249922 5.1923e-06 deg
node 35.33277179665082 4.6866e-05 deg
peri 68.81289823913659 6.1713e-05 deg
M 222.2386486374012 4.2364e-05 deg
tp 2459571.547852290644
(2021-Dec-23.04785229)
0.00018035 TDB
period 1492.270689792641
4.09
2.8179e-05
7.715e-08
d
yr
n .2412430951451737 4.5554e-09 deg/d
Q 2.805298868242212 3.5315e-08 au
  Orbit Determination Parameters
   # obs. used (total)      158  
   data-arc span      5823 days (15.94 yr)  
   first obs. used      2004-11-10  
   last obs. used      2020-10-20  
   planetary ephem.      DE431  
   SB-pert. ephem.      SB431-N16  
   condition code      0  
   norm. resid. RMS      .49204  
   source      ORB  
   producer      Otto Matic  
   solution date      2020-Nov-11 22:43:18  

Additional Information
 Earth MOID = 1.3444 au 
 Jupiter MOID = 2.35412 au 
 T_jup = 3.410 
[ show covariance matrix ]

Ephemeris | Orbit Diagram | Orbital Elements | Mission Design | Physical Parameters | Discovery Circumstances ]

Physical Parameter Table
Parameter Symbol Value Units Sigma Reference Notes
absolute magnitude H 16.5   n/a MPO477465  

523565 (2018 CA6)          Discovered 2010-Mar-05 by CSS at Catalina
Reference: Last Updated: 2018-05-31
Ephemeris | Orbit Diagram | Orbital Elements | Mission Design | Physical Parameters | Discovery Circumstances ]
ABOUT SSD CREDITS/AWARDS PRIVACY/COPYRIGHT GLOSSARY LINKS
FirstGov 2020-Nov-29 07:33 UT
(server date/time)  
NASA Home Page
Site Manager:   Ryan S. Park
Webmaster  Alan B. Chamberlin